Hourly Data Report for January 06, 2003

SHERBROOKE A
QUEBEC

45°26'00.000" N
71°41'00.000" W
241.40 m
7028124
71610
YSC

Download Data

Hourly Data (January 2003)
Hourly Data Report for January 6, 2003
TIME
LST
Temp Definition
°C
Dew Point Definition
°C
Rel Hum Definition
%
Precip. Amount Definition
mm

Wind Dir Definition
10's deg

Wind Spd Definition
km/h
Visibility Definition
km
Stn Press Definition
kPa
Hmdx Definition


Wind Chill Definition


Weather Definition


00:00 -5.1 -7.9 81     0 15.0 98.62     Snow
01:00 -5.3 -7.7 83   10 4 9.7 98.60   -7 Snow
02:00 -5.4 -7.4 86   12 6 8.0 98.56   -8  
03:00 -5.2 -7.4 84   8 4 9.7 98.50   -7  
04:00 -5.2 -7.4 84     0 9.7 98.45     Snow
05:00 -5.4 -7.6 84     0 4.8 98.42     Snow
06:00 -5.9 -8.1 84     0 8.0 98.44     Snow
07:00 -6.7 -8.9 84   20 4 6.4 98.43   -9 Snow
08:00 -6.2 -8.5 84     0 16.1 98.47     Snow
09:00 -5.4 -7.9 83   26 4 16.1 98.48   -7 Snow
10:00 -4.9 -7.9 79   26 4 16.1 98.48   -7 Snow
11:00 -4.7 -8.2 76   29 7 19.3 98.38   -8 Snow
12:00 -4.4 -8.5 73   27 6 19.3 98.31   -7 Cloudy
13:00 -4.2 -8.6 71   27 7 24.1 98.31   -7 Cloudy
14:00 -4.3 -8.9 70   27 6 24.1 98.28   -7 Snow Showers
15:00 -4.3 -9.0 70   27 6 24.1 98.30   -7 Snow Showers
16:00 -4.6 -8.7 73   27 6 15.0 98.33   -7  
17:00 -5.7 -9.1 77   28 4 24.1 98.35   -8 Mostly Cloudy
18:00 -6.2 -9.8 76   31 7 15.0 98.37   -10  
19:00 -7.5 -10.5 79   33 7 15.0 98.38   -11  
20:00 -8.7 -11.7 79   31 4 15.0 98.40   -11  
21:00 -11.1 -13.3 84   23 4 8.0 98.35   -14  
22:00 -9.0 -11.3 83   26 6 8.0 98.34   -12  
23:00 -8.4 -10.9 82   25 6 4.8 98.30   -12 Snow

Notes on Data Quality.

Legend

  • E = Estimated
  • M = Missing
  • NA = Not Available*
  • [empty] = Indicates an unobserved value
Date modified: